Location: Cabeza de los Veneras
(40.2000°N, 5.2000°W)
Time: 04:28:21
(UTC+00:00)

BlueWalker 3 - Pass Details

Date: 03 July 2024
Orbit: 480 x 491 km, 53.2° (Epoch: 21 July)

Event Time Altitude Azimuth Distance (km) Brightness Sun altitude
Rises 21:53:19 0° 314° (NW) 2,542 7.2 -17.7°
Reaches altitude 10° 21:55:35 10° 322° (NW) 1,659 5.9 -18.0°
Maximum altitude 21:59:07 40° 33° (NNE) 725 2.9 -18.3°
Enters shadow 22:00:29 28° 80° (E) 926 3.0 -18.5°
